User: anonymous   Login
Location: Unspecified
(0.0000°N, 0.0000°E)
Time: 14:55:46
(UTC+00:00)
Language:

TIGRISAT - Orbit

View from above orbital plane
View from above orbital plane
View from above satellite
View from above satellite

Ground track
Ground track

The orbit data is extracted from the following two-line orbital elements,

1 40043U 14033AK  20222.15281358  .00000087  00000-0  20145-4 0  9994
2 40043  97.7046  75.8485 0059605 186.9667 173.0721 14.74396246330116
Epoch (UTC): 09 August 2020 03:40:03
Eccentricity: 0.0059605
inclination: 97.7046°
perigee height: 605 km
apogee height: 689 km
right ascension of ascending node: 75.8485°
argument of perigee: 186.9667°
revolutions per day: 14.74396246
mean anomaly at epoch: 173.0721°
orbit number at epoch: 33011

The dashed part of the orbit path shows where the satellite is in the earth's shadow,  

DLR